Regional Weather Roundup
Issued by NWS Northern Indiana

Home | Current Version | Previous Version | Text Only | Print | Product List | Glossary On
Versions: 1 2 3 4 5 6 7 8 9 10 11 12 13 14 15 16 17 18 19 20 21 22 23 24 25 26 27 28 29 30 31 32 33 34 35 36 37 38 39 40 41 42 43 44 45 46 47 48 49 50
000
ASUS43 KIWX 030910
RWRIWX

KIWX WEATHER ROUNDUP
NATIONAL WEATHER SERVICE NORTHERN INDIANA
500 AM EDT WED JUN 03 2015

NOTE: "FAIR" INDICATES FEW OR NO CLOUDS BELOW 12,000 FEET WITH NO
SIGNIFICANT WEATHER AND/OR OBSTRUCTIONS TO VISIBILITY.

* THESE STATIONS ARE NOT UNDER NWS QUALITY CONTROL. THEY ALSO MAY NOT
  REPORT WEATHER SUCH AS PRECIPITATION OR FOG.

INZ001>027-031000-
NORTHERN INDIANA

CITY           SKY/WX    TMP DP  RH WIND       PRES   REMARKS
GARY*          CLEAR     52  52  97 SE3       30.09S
VALPARAISO     CLEAR     49  48  97 NE3       30.09S
MICHIGAN CITY* CLEAR     46  46 100 CALM      30.09S
LAPORTE*       CLEAR     51  49  93 CALM      30.10S
KNOX*          CLEAR     50  50 100 CALM      30.08F
SOUTH BEND     CLEAR     50  45  83 E3        30.10S
GOSHEN         CLEAR     47  43  86 CALM      30.09F
MONTICELLO*    CLEAR     53  51  92 CALM      30.07S
LOGANSPORT*    CLEAR     50  45  81 E5        30.08F
ROCHESTER*     CLEAR     52  46  82 CALM      30.09F
WARSAW*        CLEAR     46  45  93 E5        30.09F
ANGOLA*        CLEAR     46  45  93 CALM      30.10F
FORT WAYNE     PTCLDY    47  44  90 NE5       30.10S
HUNTINGTON*    CLEAR     46  45  95 CALM      30.09S
PERU/GRISSOM   CLEAR     50  47  88 E6        30.07S
MARION*        CLEAR     49  47  93 CALM      30.09S

$$
INZ028>050-031000-
CENTRAL INDIANA

CITY           SKY/WX    TMP DP  RH WIND       PRES   REMARKS
LAFAYETTE      FOG       49  49 100 W3        30.07S VSB 3/4
KOKOMO*        CLEAR     52  46  82 CALM      30.08F
MUNCIE*        PTCLDY    51  49  92 CALM      30.08S FOG
INDIANAPOLIS   MOCLDY    53  48  83 CALM      30.05F

$$
MIZ043>046-050>051-056>058-064>065-071>073-077>080-031000-
SOUTHWEST LOWER MICHIGAN

CITY           SKY/WX    TMP DP  RH WIND       PRES   REMARKS
BATTLE CREEK   CLEAR     49  44  83 CALM      30.12S
BENTON HARBOR  CLEAR     45  44  97 CALM      30.10S
COLDWATER*     CLEAR     47  45  93 CALM      30.11S
HILLSDALE*     CLEAR     51  49  93 E5        30.11S
HOLLAND        CLEAR     49  45  86 E5        30.12S
GRAND RAPIDS   CLEAR     49  46  90 E5        30.12S
KALAMAZOO      CLEAR     48  42  80 CALM      30.11F
STURGIS*       CLEAR     46  46 100 CALM      30.10S
THREE RIVERS*  FAIR      47  43  88 CALM      30.11F

$$
OHZ001>008-015>018-024>025-031000-
NORTHWEST OHIO

CITY           SKY/WX    TMP DP  RH WIND       PRES   REMARKS
WAUSEON*       FAIR      48  48 100 CALM      30.11S
DEFIANCE       PTCLDY    50  47  89 N3        30.11S
FINDLAY        CLEAR     51  49  92 N3        30.09S
TOLEDO EXPRESS CLEAR     47  45  93 CALM      30.11S
TOLEDO METCALF CLEAR     52  47  83 CALM      30.11S
LIMA           MOCLDY    50  48  93 NE3       30.09S

$$
AND FOR LAKE MICHIGAN COASTAL AND OPEN LAKE BUOY OBSERVATIONS

STATION/POSITION TEMP    WIND        PRES    VSBY  WAVE
                 AIR SEA DIR/SP/G                  HT/PER
                 (F)     (DEG/KT/KT) (MB)    (MI)  (FT/S)
CALUMET HARBOR    56     150/  2/  3   N/A
MICHIGAN CITY     54     110/  7/  8   N/A
BURNS HARBOR             130/  7/ 13 1019.3S
SAINT JOSEPH      51      CALM  /  1 1020.0R
SOUTH LAKE BUOY   46 38  150/ 10/ 10 1019.2F
4 MI NW BRIDGMAN  55 55  140/  6/  6   N/A           0
MICHIGAN CITY     56 56  140/  4/  6   N/A           1

$$
&&


USA.gov is the U.S. government's official web portal to all federal, state and local government web resources and services.